Location: Tel Aviv
(32.0670°N, 34.7670°E)
Time: 03:32:16
(UTC+03:00)

Tiros 1 - Pass Details

Date: 23 January 2022
Orbit: 629 x 663 km, 48.4° (Epoch: 26 May)

Event Time Altitude Azimuth Distance (km) Brightness Sun altitude
Rises 05:01:27 0° 315° (NW) 2,969 - -20.7°
Reaches altitude 10° 05:03:55 10° 322° (NW) 2,051 - -20.2°
Exits shadow 05:06:10 25° 339° (NNW) 1,303 8.4 -19.8°
Maximum altitude 05:08:24 42° 34° (NNE) 920 8.1 -19.3°
Drops below altitude 10° 05:12:50 10° 105° (ESE) 2,022 11.0 -18.4°
Sets 05:15:15 0° 112° (ESE) 2,923 12.1 -17.9°
